Location: Moscow
(38.8570°N, 84.2291°W)
Time: 00:28:31
(UTC+00:00)

Hubble Space Telescope - Visible Passes

Search period start: 22 January 2026 00:00
Search period end: 01 February 2026 00:00
Orbit: 479 x 481 km, 28.5° (Epoch: 21 January)

Date Brightness Start Highest point End Pass type
(mag) Time Alt. Az. Time Alt. Az. Time Alt. Az.
24 Jan 3.5 01:15:31 10° SSW 01:15:38 10° SSW 01:15:38 10° SSW visible
25 Jan 2.9 00:45:38 10° SSW 00:47:29 15° S 00:47:29 15° S visible
26 Jan 2.8 00:15:42 10° SSW 00:17:55 15° S 00:19:19 13° SSE visible
26 Jan 2.9 23:45:45 10° SSW 23:47:59 15° S 23:50:13 10° SE visible
27 Jan 3.5 01:24:48 10° SW 01:25:14 12° SW 01:25:14 12° SW visible
28 Jan 2.8 00:54:50 10° SW 00:57:02 16° S 00:57:02 16° S visible
29 Jan 2.8 00:24:50 10° SW 00:27:12 16° S 00:28:51 13° SSE visible
29 Jan 3.0 23:54:48 10° SW 23:57:10 16° S 23:59:33 10° SE visible
30 Jan 3.1 23:24:45 10° SW 23:27:06 16° S 23:29:29 10° SE visible
